Location: Newark
(45.5000°N, 11.4167°E)
Time: 05:04:14
(UTC+00:00)

Transit 2A Rocket - Pass Details

Date: 28 August 2019
Orbit: 592 x 911 km, 66.7° (Epoch: 16 September)

Event Time Altitude Azimuth Distance (km) Brightness Sun altitude
Rises 00:46:29 0° 333° (NNW) 3,040 8.6 -31.0°
Reaches altitude 10° 00:49:09 10° 344° (NNW) 2,071 7.8 -30.8°
Maximum altitude 00:53:11 29° 45° (NE) 1,163 6.4 -30.5°
Enters shadow 00:55:00 22° 84° (E) 1,371 6.6 -30.3°
